This is the latest recevied weather packets stored in our database for station/object SV7RNH. If no packets are shown the sender has not sent any weather packets the latest 10 day(s).
| Time | Temp. | Humidity | Pressure | Rain* | Wind** | Luminosity | Snow |
|---|---|---|---|---|---|---|---|
| 1777796403 | 16.11° C | 31% | 1020.7 hPa | 0.25 mm | - | - | - |
| 1777796104 | 16.11° C | 32% | 1020.8 hPa | 0.25 mm | - | - | - |
| 1777795804 | 15.56° C | 26% | 1020.9 hPa | 0.25 mm | - | - | - |
| 1777795503 | 16.11° C | 26% | 1020.9 hPa | 0.25 mm | - | - | - |
| 1777795203 | 16.11° C | 26% | 1020.8 hPa | 0.25 mm | - | - | - |
| 1777794904 | 15.56° C | 28% | 1020.8 hPa | 0.25 mm | - | - | - |
| 1777794604 | 15.56° C | 28% | 1020.8 hPa | 0.25 mm | - | - | - |
| 1777794304 | 15.56° C | 32% | 1020.8 hPa | 0.25 mm | - | - | - |
| 1777794003 | 15.56° C | 33% | 1020.9 hPa | 0.25 mm | - | - | - |
| 1777793704 | 15.56° C | 34% | 1021 hPa | 0.25 mm | - | - | - |
| 1777793404 | 15.56° C | 42% | 1020.9 hPa | 0 mm | - | - | - |
| 1777793104 | 15.56° C | 45% | 1020.8 hPa | 0 mm | - | - | - |
| 1777792803 | 15° C | 47% | 1021 hPa | 0 mm | - | - | - |
| 1777792503 | 14.44° C | 47% | 1021 hPa | 0 mm | - | - | - |
| 1777792204 | 14.44° C | 50% | 1020.8 hPa | 0 mm | - | - | - |
| 1777791903 | 14.44° C | 50% | 1020.8 hPa | 0 mm | - | - | - |
| 1777791603 | 13.89° C | 53% | 1020.8 hPa | 0 mm | - | - | - |
| 1777791304 | 13.89° C | 54% | 1020.8 hPa | 0 mm | - | - | - |
| 1777791004 | 12.78° C | 57% | 1020.8 hPa | 0 mm | - | - | - |
| 1777790703 | 12.22° C | 56% | 1020.7 hPa | 0 mm | - | - | - |
| 1777790403 | 11.67° C | 57% | 1020.6 hPa | 0 mm | - | - | - |
| 1777790103 | 11.11° C | 58% | 1020.6 hPa | 0 mm | - | - | - |
| 1777789803 | 11.11° C | 58% | 1020.7 hPa | 0 mm | - | - | - |
| 1777789504 | 11.11° C | 59% | 1020.7 hPa | 0 mm | - | - | - |
| 1777789203 | 11.11° C | 60% | 1020.7 hPa | 0 mm | - | - | - |
* Rain latest hour (hover to see other rain measurements)
** Current wind speed in m/s (hover to see current wind gust speed)